GORIZONT 27 (22245 NORAD) Tracking and Keplerian Element Data

This shows tracking and keplerian element data for the satellite.

Feedback or suggestion? Click here.




ElementValue
Catalog22245
NameGORIZONT 27
Epoch Orbit12212
Epoch Day34.59340171
Epoch Year2025
RAAN347.6535
Inclination14.0191
Eccentricity0.0011163
Argument of Perigee14.8638
Mean Anonmoly144.1421
Mean Motion1.00228481
Decay Rate-1.48E-06
L11 22245U 92082A 25034.59340171 -.00000148 00000+0 00000+0 0 9992
L22 22245 14.0191 347.6535 0011163 14.8638 144.1421 1.00228481122129



Live tracking and technical data element details for GORIZONT 27 (NORAD 22245). GORIZONT 27 can be tracked NOW for your location showing map with azimuth and elevation plus other details from your city location.







IsCatalogInMostPopularTable: catalog: 22245, numindb: 356
Update: records affected: 1



GetName: 22245 GORIZONT 27

Hit Count: updated at: Thu, 22 May 2025 04:21:33 GMT